This demonstration page uses our WeatherBlox Daily Observations layout. Learn more.

39.29038, -76.61219

Hourly Observations for January 16, 2019

Temp ( °F °C ) Dew Point ( °F °C ) Humidity (%) Winds ( mph kmh ) Pressure ( in mb ) Visibility ( mi km ) Precip ( " mm )
12:54 am 00:54 Clear 23 -5 20 -6.7 88 88 SSW 3 6 30.12 1020 10 16.09344 0 0
1:54 am 01:54 Clear 23 -5 20 -6.7 88 88 SW 3 6 30.12 1020 10 16.09344 0 0
2:54 am 02:54 Clear 23 -5 20 -6.7 88 88 Calm 30.12 1020 9 14.484096 0 0
3:54 am 03:54 Partly Cloudy with Mist and Fog 20 -6.7 19 -7.2 96 96 W 3 6 30.09 1019 5 8.04672 0 0
4:54 am 04:54 Mostly Clear with Mist and Fog 21 -6.1 19 -7.2 92 92 SW 3 6 30.09 1019 5 8.04672 0 0
5:54 am 05:54 Mostly Clear with Mist and Fog 20 -6.7 19 -7.2 96 96 Calm 30.09 1019 6 9.656064 0 0
6:54 am 06:54 Clear with Mist and Fog 20 -6.7 19 -7.2 96 96 W 3 6 30.12 1020 6 9.656064 0 0
7:54 am 07:54 Partly Cloudy with Mist and Fog 21 -6.1 20 -6.7 96 96 VRB 3 6 30.12 1020 6 9.656064 0 0
8:54 am 08:54 Mostly Cloudy 27 -2.8 24 -4.4 89 89 WNW 5 7 30.12 1020 8 12.874752 0 0
9:54 am 09:54 Mostly Cloudy 31 -0.6 26 -3.3 82 82 W 5 7 30.15 1021 9 14.484096 0 0
10:54 am 10:54 Cloudy 35 1.7 26 -3.3 70 70 WSW 6 9 30.15 1021 10 16.09344 0 0
11:54 am 11:54 Cloudy 36 2.2 27 -2.8 70 70 W 7 11 30.15 1021 10 16.09344 0 0
12:54 pm 12:54 Cloudy 37 2.8 27 -2.8 67 67 W 10 17 30.12 1020 10 16.09344 0 0
1:54 pm 13:54 Cloudy 39 3.9 26 -3.3 60 60 WNW 16 26 30.12 1020 10 16.09344 0 0
2:54 pm 14:54 Cloudy 39 3.9 27 -2.8 62 62 W 10 17 30.12 1020 10 16.09344 0 0
3:54 pm 15:54 Mostly Cloudy 39 3.9 27 -2.8 62 62 W 9 15 30.15 1021 10 16.09344 0 0
4:54 pm 16:54 Mostly Cloudy 38 3.3 27 -2.8 65 65 W 9 15 30.18 1022 10 16.09344 0 0
5:54 pm 17:54 Mostly Cloudy 38 3.3 27 -2.8 65 65 W 8 13 30.18 1022 10 16.09344 0 0
6:54 pm 18:54 Cloudy 38 3.3 27 -2.8 65 65 W 7 11 30.21 1023 10 16.09344 0 0
7:54 pm 19:54 Cloudy 37 2.8 27 -2.8 67 67 WNW 5 7 30.24 1024 10 16.09344 0 0
8:54 pm 20:54 Cloudy 38 3.3 26 -3.3 62 62 NNW 5 7 30.24 1024 10 16.09344 0 0
9:54 pm 21:54 Cloudy 37 2.8 26 -3.3 65 65 WNW 6 9 30.27 1025 10 16.09344 0 0
10:54 pm 22:54 Cloudy 37 2.8 25 -3.9 62 62 W 5 7 30.27 1025 10 16.09344 0 0
11:54 pm 23:54 Cloudy 37 2.8 25 -3.9 62 62 WSW 7 11 30.3 1026 10 16.09344 0 0

Powered by AerisWeather